Location: Sedan
(39.2354°N, 78.5718°W)
Time: 13:09:51
(UTC+00:00)

Envisat - Pass Details

Date: 04 December 2021
Orbit: 764 x 766 km, 98.2° (Epoch: 19 January)

Event Time Altitude Azimuth Distance (km) Brightness Sun altitude
Rises 08:55:21 0° 34° (NNE) 3,238 6.6 -38.5°
Reaches altitude 10° 08:58:47 10° 58° (ENE) 2,306 6.0 -37.9°
Maximum altitude 09:01:31 15° 91° (E) 2,002 5.8 -37.3°
Drops below altitude 10° 09:04:15 10° 124° (SE) 2,296 6.0 -36.8°
Sets 09:07:37 0° 148° (SSE) 3,216 6.6 -36.1°
